Location: Unspecified
(0.0000°N, 0.0000°E)
Time: 00:07:10
(UTC+02:00)

Amateur Radio Satellites - All Passes

Search period start: 19 April 2014 23:37
Search period end: 20 April 2014 23:37
Location: Unspecified, 0.0000°N, 0.0000°E

Satellite Date Start Highest point End Downlink Frequencies (MHz)
Time Altitude Azimuth
Saudisat 1A 20 Apr 00:03:15 00:04:46 12° 247° (WSW) 00:06:17 436.775 MHz
PCSat 20 Apr 00:11:23 00:16:31 45° 109° (ESE) 00:21:37 145.825 MHz
FUNcube-1 20 Apr 00:32:58 00:37:11 47° 258° (WSW) 00:41:17 145.950 - 145.970 MHz USB
Sapphire 20 Apr 01:09:44 01:14:48 42° 289° (WNW) 01:19:53 437.095 MHz 1200 baud AX-25 AFSK
ISS 20 Apr 01:25:30 01:28:23 27° 55° (NE) 01:31:16 145.800 FM
PCSat 20 Apr 01:57:58 01:59:40 11° 290° (WNW) 02:01:23 145.825 MHz
Oscar 16 20 Apr 02:06:30 02:07:40 11° 103° (ESE) 02:08:51 437.025 USB, Beacon 2401.1428
KITSAT 1 20 Apr 02:34:34 02:42:32 63° 110° (ESE) 02:50:30 435.175 FM
SO-50 20 Apr 02:40:46 02:44:45 27° 68° (ENE) 02:48:46 436.795 FM
Uribyol 2 20 Apr 02:40:55 02:43:11 13° 103° (ESE) 02:45:28 436.500 FM
AO-27 20 Apr 03:18:40 03:23:26 38° 103° (ESE) 03:28:14 436.795 MHz FM
ITAMSAT 1 20 Apr 03:29:04 03:34:04 50° 103° (ESE) 03:39:06 435.822 SSB
OPAL 20 Apr 03:29:54 03:33:08 18° 75° (ENE) 03:36:22 ?
Oscar 19 20 Apr 03:33:19 03:38:25 62° 282° (WNW) 03:43:33 437.125 CW, 437.150 USB
AO-Echo 20 Apr 03:33:59 03:38:22 40° 102° (ESE) 03:42:48 ?
Oscar 16 20 Apr 03:41:49 03:46:43 44° 282° (WNW) 03:51:39 437.025 USB, Beacon 2401.1428
TMSAT-1 20 Apr 04:01:45 04:05:10 18° 103° (ESE) 04:08:36 436.925 FM
Uribyol 2 20 Apr 04:17:36 04:22:22 38° 283° (WNW) 04:27:10 436.500 FM
SO-50 20 Apr 04:22:08 04:25:05 16° 247° (WSW) 04:28:04 436.795 FM
PANSAT 20 Apr 04:26:40 04:29:55 25° 151° (SSE) 04:33:10 not established
AO-40 20 Apr 04:30:53 04:50:16 87° 188° (S) 16:14:47 Beacon 2401.320
KITSAT 1 20 Apr 04:33:18 04:37:40 15° 291° (WNW) 04:42:04 435.175 FM
Gurwin Techsat 1B 20 Apr 04:51:35 04:56:51 73° 282° (WNW) 05:02:09 435.225 FM
RS-15 20 Apr 04:57:18 05:02:54 14° 115° (ESE) 05:08:22 29.354 - 29.394 USB, Beacon 29.352 USB
AO-27 20 Apr 05:00:29 05:02:41 13° 283° (WNW) 05:04:52 436.795 MHz FM
UOSAT-12 20 Apr 05:02:07 05:06:30 42° 68° (ENE) 05:10:49 437.025 FM, 437.400 FM
OPAL 20 Apr 05:07:38 05:11:45 26° 256° (WSW) 05:15:52 ?
AO-7 20 Apr 05:21:04 05:28:22 34° 106° (ESE) 05:35:40 29.400 - 29.500 MHz
JAS-1B 20 Apr 05:28:01 05:34:03 73° 104° (ESE) 05:41:09 435.800 - 435.900 CW/SSB
Uosat F 20 Apr 05:30:56 05:35:51 61° 103° (ESE) 05:40:47 435.120 FM
TMSAT-1 20 Apr 05:40:17 05:44:49 29° 282° (WNW) 05:49:22 436.925 FM
PANSAT 20 Apr 06:06:23 06:10:05 43° 330° (NNW) 06:13:47 not established
RS-15 20 Apr 07:03:25 07:15:21 84° 290° (WNW) 07:26:41 29.354 - 29.394 USB, Beacon 29.352 USB
AO-7 20 Apr 07:13:40 07:20:47 32° 286° (WNW) 07:27:58 29.400 - 29.500 MHz
STRAND 1 20 Apr 07:45:59 07:50:30 31° 77° (ENE) 07:54:58 ?
Hamsat 20 Apr 08:02:31 08:06:51 70° 281° (WNW) 08:11:13 145.90 MHz
Oscar 10/S400 20 Apr 08:04:15 15:15:05 85° 137° (SE) 18:55:07 145.825 - 145.975 CW/USB, Beacon 145.810 USB
JAS-2 20 Apr 08:24:38 08:30:35 52° 104° (ESE) 08:37:20 435.800 - 435.900 CW/SSB, 435.910 FM
SO-67 20 Apr 09:09:17 09:12:40 52° 281° (W) 09:16:05 435.3500 MHz FM
STRAND 1 20 Apr 09:26:26 09:29:24 16° 257° (WSW) 09:32:22 ?
RS-15 20 Apr 09:26:35 09:27:30 10° 293° (WNW) 09:28:24 29.354 - 29.394 USB, Beacon 29.352 USB
MaSat-1 20 Apr 09:36:17 09:40:22 79° 253° (WSW) 09:45:19 437.345 MHz
JAS-2 20 Apr 10:12:44 10:15:36 14° 280° (W) 10:18:38 435.800 - 435.900 CW/SSB, 435.910 FM
Saudisat 1A 20 Apr 10:27:28 10:31:44 47° 112° (ESE) 10:36:00 436.775 MHz
HO-68 20 Apr 11:04:24 11:11:34 76° 284° (WNW) 11:18:45 435.675 MHz FM
FUNcube-1 20 Apr 11:11:08 11:11:39 10° 103° (ESE) 11:12:10 145.950 - 145.970 MHz USB
Oscar 11 20 Apr 11:15:38 11:19:55 58° 102° (ESE) 11:24:13 145.825 FM, Beacon 2401.500 USB
Sapphire 20 Apr 12:03:02 12:08:02 39° 71° (ENE) 12:13:02 437.095 MHz 1200 baud AX-25 AFSK
FUNcube-1 20 Apr 12:43:46 12:47:44 34° 281° (W) 12:51:50 145.950 - 145.970 MHz USB
PCSat 20 Apr 12:47:32 12:52:48 57° 251° (WSW) 12:58:06 145.825 MHz
ISS 20 Apr 13:01:51 13:04:13 18° 126° (SE) 13:06:35 145.800 FM
Sapphire 20 Apr 13:48:41 13:51:12 13° 250° (WSW) 13:53:44 437.095 MHz 1200 baud AX-25 AFSK
Oscar 19 20 Apr 14:29:27 14:33:12 21° 77° (ENE) 14:36:56 437.125 CW, 437.150 USB
Oscar 16 20 Apr 14:37:14 14:41:36 29° 77° (ENE) 14:45:57 437.025 USB, Beacon 2401.1428
ISS 20 Apr 14:38:59 14:40:45 14° 306° (NW) 14:42:32 145.800 FM
KITSAT 1 20 Apr 14:42:31 14:50:33 80° 70° (ENE) 14:58:36 435.175 FM
SO-50 20 Apr 14:54:01 14:58:23 48° 112° (ESE) 15:02:42 436.795 FM
Uribyol 2 20 Apr 15:13:35 15:18:16 35° 77° (ENE) 15:22:54 436.500 FM
Gurwin Techsat 1B 20 Apr 15:51:53 15:55:48 21° 77° (ENE) 15:59:42 435.225 FM
AO-27 20 Apr 15:53:37 15:58:51 78° 257° (WSW) 16:04:02 436.795 MHz FM
JAS-1B 20 Apr 15:54:11 15:56:10 11° 79° (E) 15:58:06 435.800 - 435.900 CW/SSB
OPAL 20 Apr 16:00:03 16:04:58 44° 104° (ESE) 16:09:52 ?
AO-Echo 20 Apr 16:02:31 16:07:52 81° 258° (WSW) 16:13:08 ?
ITAMSAT 1 20 Apr 16:04:12 16:09:20 60° 257° (WSW) 16:14:25 435.822 SSB
Oscar 19 20 Apr 16:08:15 16:12:16 24° 257° (WSW) 16:16:17 437.125 CW, 437.150 USB
PANSAT 20 Apr 16:14:25 16:17:41 26° 29° (NNE) 16:20:57 not established
Oscar 16 20 Apr 16:17:28 16:20:41 17° 257° (WSW) 16:23:54 437.025 USB, Beacon 2401.1428
TMSAT-1 20 Apr 16:38:18 16:43:26 50° 78° (ENE) 16:48:32 436.925 FM
KITSAT 1 20 Apr 16:44:14 16:45:45 11° 248° (WSW) 16:47:16 435.175 FM
Uribyol 2 20 Apr 16:54:48 16:57:27 14° 257° (WSW) 17:00:06 436.500 FM
UOSAT-12 20 Apr 17:12:11 17:16:36 74° 112° (ESE) 17:21:04 437.025 FM, 437.400 FM
Gurwin Techsat 1B 20 Apr 17:31:14 17:35:29 25° 257° (WSW) 17:39:45 435.225 FM
JAS-1B 20 Apr 17:37:09 17:46:44 86° 256° (WSW) 17:54:55 435.800 - 435.900 CW/SSB
OPAL 20 Apr 17:42:05 17:43:33 11° 285° (WNW) 17:45:01 ?
AO-7 20 Apr 17:46:48 17:54:52 56° 74° (ENE) 18:02:52 29.400 - 29.500 MHz
PANSAT 20 Apr 17:54:12 17:57:50 40° 210° (SSW) 18:01:29 not established
Uosat F 20 Apr 18:00:48 18:05:44 56° 257° (WSW) 18:10:39 435.120 FM
RS-15 20 Apr 18:44:51 18:56:06 83° 70° (ENE) 19:07:55 29.354 - 29.394 USB, Beacon 29.352 USB
JAS-1B 20 Apr 19:35:26 19:36:07 10° 251° (WSW) 19:36:47 435.800 - 435.900 CW/SSB
AO-7 20 Apr 19:41:55 19:47:14 19° 253° (WSW) 19:52:33 29.400 - 29.500 MHz
JAS-2 20 Apr 19:59:48 20:05:24 29° 79° (E) 20:10:27 435.800 - 435.900 CW/SSB, 435.910 FM
Hamsat 20 Apr 20:10:19 20:14:23 52° 259° (WSW) 20:18:27 145.90 MHz
STRAND 1 20 Apr 20:18:05 20:23:10 80° 102° (ESE) 20:28:18 ?
SO-67 20 Apr 20:54:47 20:58:17 83° 79° (E) 21:01:46 435.3500 MHz FM
RS-15 20 Apr 21:02:56 21:08:30 15° 245° (WSW) 21:14:15 29.354 - 29.394 USB, Beacon 29.352 USB
MaSat-1 20 Apr 21:41:07 21:45:08 47° 285° (WNW) 21:48:26 437.345 MHz
JAS-2 20 Apr 21:44:43 21:50:08 26° 254° (WSW) 21:55:05 435.800 - 435.900 CW/SSB, 435.910 FM
Saudisat 1A 20 Apr 22:33:43 22:38:03 75° 68° (ENE) 22:42:22 436.775 MHz
HO-68 20 Apr 22:56:03 23:03:13 89° 256° (WSW) 23:10:21 435.675 MHz FM
FUNcube-1 20 Apr 23:20:38 23:22:55 14° 79° (E) 23:25:10 145.950 - 145.970 MHz USB
AO-40 20 Apr 23:21:44 23:27:20 49° 7° (N) 23:36:19 Beacon 2401.320
Oscar 11 20 Apr 23:24:59 23:29:18 80° 78° (ENE) 23:33:35 145.825 FM, Beacon 2401.500 USB
